Погода в Сабуровщине

Россия / Калужская область     54°26′03″N   35°39′29″E
темп.,
°C
ветер,
м/с
пор.,
м/с
влажн.,
%
обл.,
%
осадки,
мм/ч
давл.,
гПа
погр.,
м
20 июня, вс
вс2000:00+17ю33890 0.0 102428
03:00+16ю22920 0.0 102416
06:00+18ююв22890 0.0 102379
09:00+22ююв22750 0.0 1023499
12:00+25ююв34600 0.0 10231121
15:00+26ю34550 0.0 10221266
18:00+25ю226484 0.0 1021909
21:00+20ююв338295 0.0 102133
21 июня, пн
пн2100:00+17ююв3390100 0.0 102139
03:00+16юв229293 0.0 102115
06:00+17вюв2489100 0.0 1021105
09:00+22юв3573100 0.0 1022405
12:00+26юв455723 0.0 10211018
15:00+27юв45544 0.0 10201228
18:00+26юв36685 0.0 1019742
21:00+21юв36886 0.0 1020100
22 июня, вт
вт2200:00+19юв349482 0.0 102062
03:00+18юв229442 0.0 102034
06:00+19юв369230 0.0 1020140
09:00+24юв47735 0.0 1020437
12:00+28ююв56585 0.0 1020920
15:00+29ююв56555 0.0 10201127
18:00+28ююв47684 0.0 1020634
21:00+23ююв37882 0.0 1020126
23 июня, ср
ср2300:00+20ююв359318 0.0 102074
03:00+19юв229390 0.0 102132
06:00+20юв358862 0.0 1021119
09:00+25юв34703 0.0 1021391
12:00+28ююв44575 0.0 1021896
15:00+30юв34485 0.0 10201270
18:00+29юв24622 0.0 1020465
21:00+23ююв33795 0.0 102035
24 июня, чт
чт2400:00+20ююв22854 0.0 102012
03:00+19ююв11895 0.0 102111
06:00+21юв12875 0.0 102155
09:00+26вюв11725 0.0 1021356
12:00+29юв22585 0.0 1021927
15:00+31ю22525 0.0 10201137
18:00+30юз12588 0.0 1020923
21:00+25ююв337770 0.0 101931